When you browse on this site, cookies collect data to enhance your experience and personalize the content and advertising you see.
Visit our Privacy Policy to learn more. By continuing to use the site, you agree to this use of cookies and data.

Meteo pe oră la Dziecinne

Astăzi, 26 Septembrie, Sâmbătă

Timp Temperatura Precipitaţii Vânt Presiune Umiditate
00:00 +19°C° 0 mm 5 m/s 735 mmHg 67%
01:00 +19°C° 0 mm 5 m/s 735 mmHg 68%
02:00 +19°C° 0 mm 5 m/s 735 mmHg 68%
03:00 +17°C° 0 mm 5 m/s 734 mmHg 70%
04:00 +17°C° 0 mm 6 m/s 734 mmHg 71%
05:00 +17°C° 0 mm 6 m/s 734 mmHg 73%
06:00 +17°C° 0 mm 6 m/s 734 mmHg 72%
07:00 +17°C° 0 mm 7 m/s 734 mmHg 71%
08:00 +17°C° 0 mm 7 m/s 733 mmHg 70%
09:00 +20°C° 0 mm 8 m/s 734 mmHg 66%
10:00 +21°C° 0 mm 8 m/s 734 mmHg 62%
11:00 +23°C° 0 mm 9 m/s 734 mmHg 57%
12:00 +23°C° 0 mm 9 m/s 734 mmHg 54%
13:00 +24°C° 0 mm 9 m/s 734 mmHg 51%
14:00 +26°C° 0 mm 10 m/s 734 mmHg 48%
15:00 +24°C° 0 mm 8 m/s 734 mmHg 50%
16:00 +23°C° 0 mm 7 m/s 734 mmHg 52%
17:00 +23°C° 0 mm 6 m/s 734 mmHg 55%
18:00 +22°C° 0.2 mm 6 m/s 734 mmHg 55%
19:00 +22°C° 0.2 mm 7 m/s 734 mmHg 56%
20:00 +22°C° 0.2 mm 7 m/s 734 mmHg 57%
21:00 +22°C° 0 mm 7 m/s 734 mmHg 58%
22:00 +21°C° 0 mm 7 m/s 734 mmHg 59%
23:00 +21°C° 0 mm 7 m/s 734 mmHg 60%

Mâine, 27 Septembrie, Duminică

Timp Temperatura Precipitaţii Vânt Presiune Umiditate
00:00 +20°C° 0 mm 7 m/s 734 mmHg 60%
01:00 +20°C° 0 mm 7 m/s 734 mmHg 61%
02:00 +20°C° 0 mm 7 m/s 734 mmHg 61%
03:00 +20°C° 0 mm 7 m/s 734 mmHg 62%
04:00 +20°C° 0 mm 8 m/s 733 mmHg 63%
05:00 +20°C° 0 mm 8 m/s 733 mmHg 64%
06:00 +18°C° 0.3 mm 8 m/s 733 mmHg 67%
07:00 +18°C° 0.3 mm 8 m/s 733 mmHg 70%
08:00 +18°C° 0.3 mm 8 m/s 733 mmHg 72%
09:00 +18°C° 0.1 mm 9 m/s 734 mmHg 71%
10:00 +18°C° 0.1 mm 10 m/s 734 mmHg 70%
11:00 +18°C° 0.1 mm 10 m/s 734 mmHg 69%
12:00 +17°C° 0.6 mm 9 m/s 735 mmHg 75%
13:00 +15°C° 0.6 mm 8 m/s 735 mmHg 81%
14:00 +13°C° 0.6 mm 8 m/s 736 mmHg 86%
15:00 +12°C° 0.8 mm 7 m/s 736 mmHg 86%
16:00 +11°C° 0.8 mm 7 m/s 737 mmHg 86%
17:00 +10°C° 0.8 mm 7 m/s 737 mmHg 86%
18:00 +10°C° 0 mm 6 m/s 738 mmHg 85%
19:00 +9°C° 0 mm 6 m/s 739 mmHg 83%
20:00 +9°C° 0 mm 5 m/s 740 mmHg 82%
21:00 +9°C° 0 mm 5 m/s 741 mmHg 82%
22:00 +10°C° 0 mm 5 m/s 742 mmHg 82%
23:00 +10°C° 0 mm 5 m/s 742 mmHg 82%

Poimâine, 28 Septembrie, Luni

Timp Temperatura Precipitaţii Vânt Presiune Umiditate
00:00 +9°C° 0 mm 5 m/s 743 mmHg 85%
01:00 +8°C° 0 mm 4 m/s 743 mmHg 87%
02:00 +8°C° 0 mm 4 m/s 743 mmHg 89%
03:00 +8°C° 0 mm 4 m/s 744 mmHg 88%
04:00 +8°C° 0 mm 4 m/s 744 mmHg 87%
05:00 +8°C° 0 mm 4 m/s 745 mmHg 86%
06:00 +8°C° 0 mm 4 m/s 745 mmHg 83%
07:00 +8°C° 0 mm 4 m/s 745 mmHg 80%
08:00 +10°C° 0 mm 4 m/s 745 mmHg 77%
09:00 +12°C° 0 mm 4 m/s 746 mmHg 69%
10:00 +13°C° 0 mm 4 m/s 746 mmHg 62%
11:00 +15°C° 0 mm 5 m/s 746 mmHg 54%
12:00 +16°C° 0 mm 5 m/s 746 mmHg 52%
13:00 +16°C° 0 mm 5 m/s 746 mmHg 51%
14:00 +16°C° 0 mm 5 m/s 746 mmHg 49%
15:00 +15°C° 0.1 mm 5 m/s 746 mmHg 56%
16:00 +14°C° 0.1 mm 5 m/s 745 mmHg 63%
17:00 +13°C° 0.1 mm 5 m/s 745 mmHg 70%
18:00 +13°C° 0 mm 5 m/s 745 mmHg 68%
19:00 +14°C° 0 mm 5 m/s 745 mmHg 65%
20:00 +14°C° 0 mm 5 m/s 745 mmHg 63%
21:00 +14°C° 0 mm 5 m/s 744 mmHg 69%
22:00 +13°C° 0 mm 4 m/s 744 mmHg 75%
23:00 +13°C° 0 mm 4 m/s 744 mmHg 80%

29 Septembrie, Marţi

Timp Temperatura Precipitaţii Vânt Presiune Umiditate
00:00 +13°C° 0 mm 4 m/s 744 mmHg 80%
01:00 +13°C° 0 mm 4 m/s 743 mmHg 80%
02:00 +13°C° 0 mm 4 m/s 743 mmHg 79%
03:00 +13°C° 0 mm 4 m/s 743 mmHg 81%
04:00 +13°C° 0 mm 4 m/s 743 mmHg 84%
05:00 +12°C° 0 mm 4 m/s 742 mmHg 86%
06:00 +13°C° 0.4 mm 4 m/s 742 mmHg 87%
07:00 +13°C° 0.4 mm 4 m/s 742 mmHg 89%
08:00 +13°C° 0.4 mm 4 m/s 742 mmHg 90%
09:00 +13°C° 0.7 mm 4 m/s 742 mmHg 89%
10:00 +13°C° 0.7 mm 4 m/s 742 mmHg 87%
11:00 +13°C° 0.7 mm 3 m/s 741 mmHg 86%
12:00 +13°C° 1.1 mm 3 m/s 741 mmHg 88%
13:00 +12°C° 1.1 mm 3 m/s 741 mmHg 90%
14:00 +12°C° 1.1 mm 3 m/s 741 mmHg 93%
15:00 +12°C° 0.9 mm 3 m/s 741 mmHg 93%
16:00 +13°C° 0.9 mm 2 m/s 741 mmHg 94%
17:00 +13°C° 0.9 mm 2 m/s 741 mmHg 94%
18:00 +13°C° 0.3 mm 2 m/s 741 mmHg 95%
19:00 +13°C° 0.3 mm 2 m/s 741 mmHg 95%
20:00 +13°C° 0.3 mm 1 m/s 741 mmHg 96%
21:00 +13°C° 0.1 mm 1 m/s 741 mmHg 96%
22:00 +13°C° 0.1 mm 1 m/s 740 mmHg 96%
23:00 +13°C° 0.1 mm 2 m/s 740 mmHg 96%

30 Septembrie, Miercuri

Timp Temperatura Precipitaţii Vânt Presiune Umiditate
00:00 +13°C° 0.1 mm 2 m/s 740 mmHg 96%
01:00 +13°C° 0.1 mm 2 m/s 740 mmHg 96%
02:00 +13°C° 0.1 mm 2 m/s 739 mmHg 96%
03:00 +12°C° 0.6 mm 3 m/s 739 mmHg 96%
04:00 +12°C° 0.6 mm 3 m/s 739 mmHg 96%
05:00 +12°C° 0.6 mm 3 m/s 739 mmHg 96%
06:00 +12°C° 0.3 mm 3 m/s 739 mmHg 95%
07:00 +11°C° 0.3 mm 3 m/s 739 mmHg 95%
08:00 +11°C° 0.3 mm 3 m/s 739 mmHg 94%
09:00 +12°C° 0.1 mm 3 m/s 739 mmHg 93%
10:00 +12°C° 0.1 mm 3 m/s 739 mmHg 92%
11:00 +12°C° 0.1 mm 3 m/s 739 mmHg 91%
12:00 +12°C° 0 mm 3 m/s 739 mmHg 90%
13:00 +13°C° 0 mm 3 m/s 739 mmHg 90%
14:00 +13°C° 0 mm 3 m/s 739 mmHg 89%
15:00 +13°C° 0 mm 3 m/s 739 mmHg 90%
16:00 +13°C° 0 mm 3 m/s 739 mmHg 90%
17:00 +13°C° 0 mm 3 m/s 739 mmHg 91%
18:00 +12°C° 0 mm 3 m/s 740 mmHg 92%
19:00 +12°C° 0 mm 3 m/s 740 mmHg 93%
20:00 +12°C° 0 mm 2 m/s 740 mmHg 95%
21:00 +12°C° 0 mm 2 m/s 740 mmHg 95%
22:00 +12°C° 0 mm 2 m/s 740 mmHg 95%
23:00 +12°C° 0 mm 2 m/s 740 mmHg 96%

1 Octombrie, Joi

Timp Temperatura Precipitaţii Vânt Presiune Umiditate
00:00 +12°C° 0 mm 2 m/s 740 mmHg 96%
01:00 +10°C° 0 mm 2 m/s 740 mmHg 96%
02:00 +10°C° 0 mm 2 m/s 740 mmHg 96%
03:00 +10°C° 0 mm 3 m/s 740 mmHg 95%
04:00 +11°C° 0 mm 3 m/s 740 mmHg 95%
05:00 +11°C° 0 mm 3 m/s 740 mmHg 94%
06:00 +11°C° 0.1 mm 3 m/s 740 mmHg 94%
07:00 +11°C° 0.1 mm 3 m/s 740 mmHg 94%
08:00 +11°C° 0.1 mm 3 m/s 740 mmHg 93%
09:00 +11°C° 0.1 mm 3 m/s 740 mmHg 93%
10:00 +12°C° 0.1 mm 3 m/s 740 mmHg 92%
11:00 +12°C° 0.1 mm 3 m/s 740 mmHg 91%
12:00 +12°C° 0.2 mm 3 m/s 740 mmHg 91%
13:00 +13°C° 0.2 mm 3 m/s 740 mmHg 91%
14:00 +13°C° 0.2 mm 3 m/s 740 mmHg 91%
15:00 +14°C° 0.1 mm 2 m/s 741 mmHg 91%
16:00 +14°C° 0.1 mm 2 m/s 741 mmHg 91%
17:00 +14°C° 0.1 mm 2 m/s 741 mmHg 91%
18:00 +13°C° 0 mm 2 m/s 741 mmHg 92%
19:00 +13°C° 0 mm 2 m/s 742 mmHg 93%
20:00 +13°C° 0 mm 1 m/s 742 mmHg 95%
21:00 +12°C° 0 mm 2 m/s 742 mmHg 95%
22:00 +12°C° 0 mm 2 m/s 743 mmHg 95%
23:00 +12°C° 0 mm 2 m/s 743 mmHg 94%
Arată mai mult